Weather Roundup
Issued by NWS Springfield, MO

Home | Current Version | Previous Version | Text Only | Print | Product List | Glossary On
Versions: 1 2 3 4 5 6 7 8 9 10 11 12 13 14 15 16 17 18 19 20 21 22 23 24 25 26 27 28 29 30 31 32 33 34 35 36 37 38 39 40 41 42 43 44 45 46 47 48 49 50
000
NZUS99 KSGF 210259
HRRSGF

HOURLY WEATHER
NATIONAL WEATHER SERVICE SPRINGFIELD MO
1000 PM CDT SAT SEP 20 2014

......SGF CWA......

CITY           SKY/WX    TMP DP  RH WIND       PRES   REMARKS
SPRINGFIELD    MOCLDY    72  68  87 SW7       30.00S
JOPLIN         CLOUDY    76  69  79 S7        30.00S
WEST PLAINS    CLEAR     74  67  78 SW6       30.04R
ROLLA          CLEAR     70  67  90 SW7       29.97S
OSAGE BEACH    CLEAR     72  68  88 CALM      29.98R

......SURROUNDING SGF CWA......

CITY           SKY/WX    TMP DP  RH WIND       PRES   REMARKS
CHANUTE        CLOUDY    77  70  79 S6        30.00R
PARSONS        CLOUDY    77  70  79 S5        30.01R
EMPORIA        CLOUDY    70  66  87 SW5       30.00R
GROVE OK       MOCLDY    73  73 100 CALM      30.03R
SILOAM SPRINGS PTCLDY    70  63  78 SE3       30.05S
HARRISON AR    PTCLDY    71  66  84 SW3       30.05R
NEAR YELLVILLE CLEAR     73  64  73 SW3       30.02R

......KANSAS AND MISSOURI......

CITY           SKY/WX    TMP DP  RH WIND       PRES   REMARKS
KANSAS CTY INT CLEAR     71  68  90 W6        29.98R
DOWNTOWN KC    CLOUDY    76  70  82 CALM      29.97R
COLUMBIA       PTCLDY    73  70  90 SW8       29.95S
SEDALIA        PTCLDY    74  70  87 SW8       29.96S FOG
ST JOSEPH      CLEAR     68  66  93 CALM      29.97R
ST LOUIS       CLEAR     78  67  68 SW7       29.93S
SPIRIT OF STL  CLEAR     69  66  90 W3        29.92S
KIRKSVILLE     CLEAR     72  70  93 W5        29.92S
WICHITA        MOCLDY    74  69  85 W10       29.98F
TOPEKA         CLEAR     69  68  96 S3        29.99R FOG
OLATHE         CLEAR     74  69  85 NW3       29.98R

......TENNESSEE......

CITY           SKY/WX    TMP DP  RH WIND       PRES   REMARKS
MEMPHIS        PTCLDY    75  67  76 S7        30.01R
NASHVILLE      PTCLDY    72  66  81 S3        30.03S

......ARKANSAS.......

CITY           SKY/WX    TMP DP  RH WIND       PRES   REMARKS
FAYETTEVILLE   PTCLDY    68  67  96 CALM      30.05R
FT SMITH       CLEAR     76  70  82 CALM      30.00R
LITTLE ROCK    CLEAR     77  68  73 CALM      30.01R

......OKLAHOMA.......

CITY           SKY/WX    TMP DP  RH WIND       PRES   REMARKS
TULSA          PTCLDY    79  68  69 S6        29.99R
PONCA CITY     CLEAR     79  67  66 VRB5      29.98R
MCALESTER      CLEAR     75  67  76 CALM      30.03R
OKLAHOMA CITY  CLEAR     74  67  78 S3        30.03R

......IOWA............

CITY           SKY/WX    TMP DP  RH WIND       PRES   REMARKS
DES MOINES     PTCLDY    71  58  63 W9        29.88R
QUAD CITIES    CLEAR     70  66  87 W8        29.80S

......ILLINOIS........

CITY           SKY/WX    TMP DP  RH WIND       PRES   REMARKS
QUINCY         MOCLDY    74  70  87 W9        29.89R
CHICAGO        PTCLDY    69  63  81 SW3       29.77F




USA.gov is the U.S. government's official web portal to all federal, state and local government web resources and services.